| time (UTC) | temp F | wind direction | speed MPH | gust MPH | rain 1hr in | rain 24hr in | rain mn in | humidity % | barometer mb |
| 20260508093047 | 61 | 129 | 5.0 | 12.0 | 0.00 | 0.00 | 0.00 | 69 | 1015.8 |
| 20260508092537 | 61 | 116 | 7.0 | 12.0 | 0.00 | 0.00 | 0.00 | 68 | 1015.6 |
| 20260508092037 | 61 | 150 | 5.0 | 12.0 | 0.00 | 0.00 | 0.00 | 69 | 1015.7 |
| 20260508091551 | 61 | 144 | 4.0 | 12.0 | 0.00 | 0.00 | 0.00 | 71 | 1015.7 |
| 20260508091037 | 60 | 159 | 5.0 | 12.0 | 0.00 | 0.00 | 0.00 | 71 | 1015.8 |
| 20260508090536 | 60 | 126 | 6.0 | 13.0 | 0.00 | 0.00 | 0.00 | 71 | 1015.8 |
| 20260508090103 | 59 | 132 | 7.0 | 13.0 | 0.00 | 0.00 | 0.00 | 71 | 1015.8 |
| 20260508085537 | 60 | 140 | 5.0 | 12.0 | 0.00 | 0.00 | 0.00 | 72 | 1015.7 |
| 20260508085036 | 59 | 147 | 6.0 | 12.0 | 0.00 | 0.00 | 0.00 | 72 | 1015.7 |
| 20260508084543 | 59 | 136 | 6.0 | 12.0 | 0.00 | 0.00 | 0.00 | 72 | 1015.7 |
| 20260508084038 | 59 | 135 | 4.0 | 12.0 | 0.00 | 0.00 | 0.00 | 74 | 1015.7 |
| 20260508083537 | 59 | 88 | 6.0 | 15.0 | 0.00 | 0.00 | 0.00 | 73 | 1015.7 |
| 20260508083101 | 59 | 134 | 6.0 | 15.0 | 0.00 | 0.00 | 0.00 | 73 | 1015.6 |
| 20260508082539 | 59 | 117 | 5.0 | 14.0 | 0.00 | 0.00 | 0.00 | 73 | 1015.7 |
| 20260508082038 | 58 | 126 | 6.0 | 13.0 | 0.00 | 0.00 | 0.00 | 73 | 1015.6 |
| 20260508081557 | 58 | 146 | 5.0 | 15.0 | 0.00 | 0.00 | 0.00 | 75 | 1015.5 |
| 20260508081037 | 58 | 98 | 6.0 | 15.0 | 0.00 | 0.00 | 0.00 | 74 | 1015.4 |
| 20260508080537 | 59 | 152 | 7.0 | 15.0 | 0.00 | 0.00 | 0.00 | 72 | 1015.4 |
| 20260508075537 | 59 | 126 | 4.0 | 10.0 | 0.00 | 0.00 | 0.00 | 72 | 1015.4 |
| 20260508075038 | 59 | 157 | 2.0 | 11.0 | 0.00 | 0.00 | 0.00 | 74 | 1015.5 |
| 20260508074548 | 58 | 180 | 5.0 | 11.0 | 0.00 | 0.00 | 0.00 | 74 | 1015.4 |
| 20260508074039 | 59 | 111 | 4.0 | 9.0 | 0.00 | 0.00 | 0.00 | 74 | 1015.4 |
| 20260508073537 | 58 | 114 | 3.0 | 12.0 | 0.00 | 0.00 | 0.00 | 76 | 1015.3 |
| 20260508073050 | 58 | 130 | 4.0 | 12.0 | 0.00 | 0.00 | 0.00 | 77 | 1015.2 |
| 20260508072537 | 58 | 161 | 5.0 | 12.0 | 0.00 | 0.00 | 0.00 | 77 | 1015.3 |
| 20260508072037 | 57 | 129 | 6.0 | 12.0 | 0.00 | 0.00 | 0.00 | 78 | 1015.3 |
| 20260508071559 | 57 | 120 | 4.0 | 12.0 | 0.00 | 0.00 | 0.00 | 78 | 1015.2 |
| 20260508071037 | 57 | 123 | 5.0 | 11.0 | 0.00 | 0.00 | 0.00 | 79 | 1015.2 |
| 20260508070540 | 57 | 101 | 4.0 | 10.0 | 0.00 | 0.00 | 0.00 | 80 | 1015.2 |
| 20260508070139 | 56 | 105 | 3.0 | 10.0 | 0.00 | 0.00 | 0.00 | 82 | 1015.1 |
| 20260508065537 | 55 | 132 | 2.0 | 9.0 | 0.00 | 0.00 | 0.00 | 83 | 1015.1 |
| 20260508065041 | 55 | 149 | 3.0 | 9.0 | 0.00 | 0.00 | 0.00 | 83 | 1015.1 |
| 20260508064605 | 55 | 149 | 2.0 | 7.0 | 0.00 | 0.00 | 0.00 | 83 | 1015.1 |
| 20260508064037 | 54 | 118 | 2.0 | 9.0 | 0.00 | 0.00 | 0.00 | 84 | 1015.1 |
| 20260508063537 | 54 | 0 | 3.0 | 9.0 | 0.00 | 0.00 | 0.00 | 85 | 1015.0 |
| 20260508063050 | 53 | 121 | 1.0 | 6.0 | 0.00 | 0.00 | 0.00 | 86 | 1015.0 |
| 20260508062536 | 53 | 105 | 0.0 | 4.0 | 0.00 | 0.00 | 0.00 | 85 | 1015.1 |
| 20260508062037 | 53 | 0 | 0.0 | 4.0 | 0.00 | 0.00 | 0.00 | 86 | 1015.0 |
| 20260508061554 | 53 | 0 | 1.0 | 4.0 | 0.00 | 0.00 | 0.00 | 85 | 1015.0 |
| 20260508061037 | 53 | 0 | 0.0 | 2.0 | 0.00 | 0.00 | 0.00 | 85 | 1014.9 |
| 20260508060537 | 53 | 0 | 0.0 | 4.0 | 0.00 | 0.00 | 0.00 | 85 | 1014.8 |
| 20260508060045 | 53 | 59 | 1.0 | 5.0 | 0.00 | 0.00 | 0.00 | 85 | 1014.7 |
| 20260508055537 | 53 | 80 | 2.0 | 5.0 | 0.00 | 0.00 | 0.00 | 85 | 1014.7 |
| 20260508055037 | 52 | 55 | 2.0 | 5.0 | 0.00 | 0.00 | 0.00 | 86 | 1014.7 |
| 20260508054548 | 52 | 0 | 2.0 | 5.0 | 0.00 | 0.00 | 0.00 | 86 | 1014.6 |
| 20260508054038 | 52 | 42 | 2.0 | 5.0 | 0.00 | 0.00 | 0.00 | 86 | 1014.6 |
| 20260508053537 | 52 | 39 | 1.0 | 5.0 | 0.00 | 0.00 | 0.00 | 86 | 1014.7 |
| 20260508053101 | 52 | 19 | 1.0 | 5.0 | 0.00 | 0.00 | 0.00 | 86 | 1014.7 |
| 20260508052540 | 52 | 25 | 1.0 | 4.0 | 0.00 | 0.00 | 0.00 | 86 | 1014.7 |
| 20260508052037 | 51 | 22 | 1.0 | 3.0 | 0.00 | 0.00 | 0.00 | 85 | 1014.7 |
| 20260508051554 | 52 | 32 | 0.0 | 4.0 | 0.00 | 0.00 | 0.00 | 85 | 1014.7 |
| 20260508051037 | 52 | 32 | 0.0 | 4.0 | 0.00 | 0.00 | 0.00 | 85 | 1014.8 |
| 20260508050537 | 52 | 32 | 1.0 | 4.0 | 0.00 | 0.00 | 0.00 | 85 | 1014.7 |
| 20260508050058 | 52 | 0 | 0.0 | 3.0 | 0.00 | 0.00 | 0.00 | 85 | 1014.7 |
| 20260508045537 | 52 | 55 | 1.0 | 4.0 | 0.00 | 0.00 | 0.00 | 85 | 1014.7 |
| 20260508045037 | 52 | 0 | 1.0 | 4.0 | 0.00 | 0.00 | 0.00 | 85 | 1014.6 |
| 20260508044548 | 52 | 30 | 0.0 | 4.0 | 0.00 | 0.00 | 0.00 | 85 | 1014.6 |
| 20260508044037 | 52 | 19 | 1.0 | 4.0 | 0.00 | 0.00 | 0.00 | 85 | 1014.6 |
| 20260508043537 | 52 | 31 | 0.0 | 6.0 | 0.00 | 0.00 | 0.00 | 85 | 1014.7 |
| 20260508043101 | 52 | 16 | 0.0 | 6.0 | 0.00 | 0.00 | 0.00 | 85 | 1014.6 |
| 20260508042538 | 52 | 41 | 1.0 | 5.0 | 0.00 | 0.00 | 0.00 | 85 | 1014.6 |
| 20260508042037 | 52 | 0 | 2.0 | 8.0 | 0.00 | 0.00 | 0.00 | 85 | 1014.6 |
| 20260508041547 | 52 | 42 | 3.0 | 8.0 | 0.00 | 0.00 | 0.00 | 84 | 1014.6 |
| 20260508041037 | 52 | 42 | 1.0 | 6.0 | 0.00 | 0.00 | 0.00 | 84 | 1014.6 |
| 20260508040538 | 52 | 98 | 1.0 | 9.0 | 0.00 | 0.00 | 0.00 | 84 | 1014.6 |
| 20260508040049 | 52 | 68 | 1.0 | 9.0 | 0.00 | 0.00 | 0.00 | 84 | 1014.6 |
| 20260508035610 | 52 | 73 | 3.0 | 8.0 | 0.00 | 0.00 | 0.00 | 84 | 1014.6 |
| 20260508035037 | 52 | 59 | 2.0 | 4.0 | 0.00 | 0.00 | 0.00 | 84 | 1014.7 |
| 20260508034550 | 52 | 66 | 1.0 | 4.0 | 0.00 | 0.00 | 0.00 | 84 | 1014.6 |
| 20260508034037 | 52 | 74 | 1.0 | 4.0 | 0.00 | 0.00 | 0.00 | 84 | 1014.7 |
| 20260508033537 | 52 | 39 | 0.0 | 4.0 | 0.00 | 0.00 | 0.00 | 84 | 1014.7 |
| 20260508033050 | 52 | 39 | 1.0 | 4.0 | 0.00 | 0.00 | 0.00 | 84 | 1014.6 |
| 20260508032538 | 53 | 28 | 1.0 | 4.0 | 0.00 | 0.00 | 0.00 | 83 | 1014.6 |
| 20260508032037 | 53 | 39 | 1.0 | 4.0 | 0.00 | 0.00 | 0.00 | 83 | 1014.7 |
| 20260508031552 | 53 | 30 | 1.0 | 4.0 | 0.00 | 0.00 | 0.00 | 83 | 1014.7 |
| 20260508031037 | 53 | 29 | 1.0 | 3.0 | 0.00 | 0.00 | 0.00 | 83 | 1014.7 |
| 20260508030537 | 53 | 0 | 0.0 | 3.0 | 0.00 | 0.00 | 0.00 | 83 | 1014.8 |
| 20260508030056 | 53 | 55 | 0.0 | 3.0 | 0.00 | 0.00 | 0.00 | 83 | 1014.7 |
| 20260508025537 | 53 | 0 | 0.0 | 2.0 | 0.00 | 0.00 | 0.00 | 83 | 1014.9 |
| 20260508025037 | 53 | 0 | 0.0 | 2.0 | 0.00 | 0.00 | 0.00 | 83 | 1014.9 |
| 20260508024555 | 53 | 0 | 0.0 | 4.0 | 0.00 | 0.00 | 0.00 | 83 | 1014.9 |
| 20260508024037 | 53 | 55 | 1.0 | 4.0 | 0.00 | 0.00 | 0.00 | 83 | 1014.9 |
| 20260508023537 | 53 | 69 | 0.0 | 3.0 | 0.00 | 0.00 | 0.00 | 83 | 1015.0 |
| 20260508023047 | 53 | 0 | 0.0 | 6.0 | 0.00 | 0.00 | 0.00 | 83 | 1014.9 |
| 20260508022539 | 53 | 103 | 0.0 | 6.0 | 0.00 | 0.00 | 0.00 | 83 | 1015.0 |
| 20260508022038 | 53 | 96 | 1.0 | 6.0 | 0.00 | 0.00 | 0.00 | 83 | 1015.0 |
| 20260508021548 | 53 | 86 | 0.0 | 4.0 | 0.00 | 0.00 | 0.00 | 82 | 1014.9 |
| 20260508021040 | 53 | 84 | 2.0 | 4.0 | 0.00 | 0.00 | 0.00 | 82 | 1014.9 |
| 20260508020537 | 53 | 98 | 2.0 | 7.0 | 0.00 | 0.00 | 0.00 | 81 | 1014.9 |
| 20260508020049 | 53 | 97 | 1.0 | 7.0 | 0.00 | 0.00 | 0.00 | 81 | 1014.9 |
| 20260508015537 | 53 | 105 | 3.0 | 7.0 | 0.00 | 0.00 | 0.00 | 81 | 1015.0 |
| 20260508015037 | 53 | 0 | 3.0 | 7.0 | 0.00 | 0.00 | 0.00 | 80 | 1015.0 |
| 20260508014548 | 53 | 107 | 1.0 | 4.0 | 0.00 | 0.00 | 0.00 | 80 | 1015.0 |
| 20260508014038 | 53 | 103 | 2.0 | 4.0 | 0.00 | 0.00 | 0.00 | 80 | 1015.0 |
| 20260508013537 | 53 | 0 | 2.0 | 6.0 | 0.00 | 0.00 | 0.00 | 79 | 1015.1 |
| 20260508013046 | 53 | 101 | 1.0 | 6.0 | 0.00 | 0.00 | 0.00 | 79 | 1015.1 |
| 20260508012537 | 53 | 84 | 3.0 | 6.0 | 0.00 | 0.00 | 0.00 | 79 | 1015.1 |
| 20260508012038 | 53 | 108 | 2.0 | 4.0 | 0.00 | 0.00 | 0.00 | 78 | 1015.3 |
| 20260508011550 | 53 | 87 | 1.0 | 4.0 | 0.00 | 0.00 | 0.00 | 78 | 1015.2 |
| 20260508011037 | 53 | 115 | 1.0 | 6.0 | 0.00 | 0.00 | 0.00 | 78 | 1015.3 |
| 20260508010537 | 53 | 103 | 2.0 | 7.0 | 0.00 | 0.00 | 0.00 | 78 | 1015.3 |
| 20260508010045 | 53 | 111 | 2.0 | 7.0 | 0.00 | 0.00 | 0.00 | 78 | 1015.3 |
| 20260508005537 | 53 | 121 | 2.0 | 6.0 | 0.00 | 0.00 | 0.00 | 78 | 1015.2 |
| 20260508005041 | 53 | 109 | 2.0 | 4.0 | 0.00 | 0.00 | 0.00 | 77 | 1015.3 |
| 20260508004541 | 53 | 130 | 1.0 | 7.0 | 0.00 | 0.00 | 0.00 | 77 | 1015.3 |
| 20260508004038 | 53 | 97 | 2.0 | 7.0 | 0.00 | 0.00 | 0.00 | 76 | 1015.4 |
| 20260508003537 | 53 | 121 | 3.0 | 7.0 | 0.00 | 0.00 | 0.00 | 76 | 1015.4 |
| 20260508003045 | 53 | 141 | 3.0 | 6.0 | 0.00 | 0.00 | 0.00 | 76 | 1015.5 |
| 20260508002538 | 53 | 108 | 1.0 | 7.0 | 0.00 | 0.00 | 0.00 | 75 | 1015.4 |
| 20260508002037 | 54 | 101 | 3.0 | 7.0 | 0.00 | 0.00 | 0.00 | 75 | 1015.4 |
| 20260508001548 | 54 | 112 | 3.0 | 6.0 | 0.00 | 0.00 | 0.00 | 75 | 1015.4 |
| 20260508001037 | 54 | 141 | 2.0 | 7.0 | 0.00 | 0.00 | 0.00 | 75 | 1015.5 |
| 20260508000538 | 54 | 102 | 3.0 | 7.0 | 0.00 | 0.00 | 0.00 | 75 | 1015.4 |
| 20260508000046 | 54 | 112 | 2.0 | 7.0 | 0.00 | 0.00 | 0.00 | 74 | 1015.4 |
| 20260507235537 | 54 | 107 | 3.0 | 8.0 | 0.00 | 0.00 | 0.00 | 74 | 1015.4 |
| 20260507235037 | 54 | 159 | 2.0 | 8.0 | 0.00 | 0.00 | 0.00 | 74 | 1015.4 |
| 20260507234547 | 54 | 113 | 4.0 | 8.0 | 0.00 | 0.00 | 0.00 | 74 | 1015.4 |
| 20260507234037 | 54 | 144 | 3.0 | 8.0 | 0.00 | 0.00 | 0.00 | 73 | 1015.5 |
| 20260507233537 | 54 | 161 | 3.0 | 9.0 | 0.00 | 0.00 | 0.00 | 73 | 1015.5 |
| 20260507233048 | 54 | 117 | 2.0 | 9.0 | 0.00 | 0.00 | 0.00 | 73 | 1015.5 |
| 20260507232540 | 54 | 157 | 4.0 | 9.0 | 0.00 | 0.00 | 0.00 | 73 | 1015.5 |
| 20260507232037 | 54 | 95 | 3.0 | 9.0 | 0.00 | 0.00 | 0.00 | 72 | 1015.5 |
| 20260507231547 | 54 | 139 | 3.0 | 9.0 | 0.00 | 0.00 | 0.00 | 72 | 1015.6 |
| 20260507231038 | 54 | 100 | 4.0 | 9.0 | 0.00 | 0.00 | 0.00 | 73 | 1015.6 |
| 20260507230540 | 54 | 142 | 2.0 | 8.0 | 0.00 | 0.00 | 0.00 | 73 | 1015.6 |
| 20260507230042 | 54 | 121 | 3.0 | 7.0 | 0.00 | 0.00 | 0.00 | 73 | 1015.6 |
| 20260507225538 | 54 | 108 | 2.0 | 8.0 | 0.00 | 0.00 | 0.00 | 73 | 1015.5 |
| 20260507225038 | 54 | 72 | 3.0 | 10.0 | 0.00 | 0.00 | 0.00 | 73 | 1015.6 |
| 20260507224553 | 54 | 126 | 4.0 | 10.0 | 0.00 | 0.00 | 0.00 | 73 | 1015.6 |
| 20260507224037 | 54 | 122 | 3.0 | 10.0 | 0.00 | 0.00 | 0.00 | 73 | 1015.7 |
| 20260507223540 | 54 | 130 | 4.0 | 8.0 | 0.00 | 0.00 | 0.00 | 73 | 1015.7 |
| 20260507223053 | 54 | 96 | 3.0 | 10.0 | 0.00 | 0.00 | 0.00 | 73 | 1015.6 |
| 20260507222541 | 54 | 96 | 5.0 | 10.0 | 0.00 | 0.00 | 0.00 | 73 | 1015.6 |
| 20260507222037 | 54 | 76 | 3.0 | 9.0 | 0.00 | 0.00 | 0.00 | 73 | 1015.7 |
| 20260507221548 | 54 | 98 | 5.0 | 9.0 | 0.00 | 0.00 | 0.00 | 73 | 1015.7 |
| 20260507221038 | 54 | 79 | 3.0 | 11.0 | 0.00 | 0.00 | 0.00 | 72 | 1015.8 |
| 20260507220538 | 54 | 111 | 3.0 | 11.0 | 0.00 | 0.00 | 0.00 | 72 | 1015.8 |
| 20260507220048 | 54 | 146 | 5.0 | 12.0 | 0.00 | 0.00 | 0.00 | 72 | 1015.9 |
| 20260507215540 | 55 | 154 | 3.0 | 12.0 | 0.00 | 0.00 | 0.00 | 71 | 1015.9 |
| 20260507215038 | 55 | 106 | 3.0 | 9.0 | 0.00 | 0.00 | 0.00 | 71 | 1015.9 |
| 20260507214542 | 55 | 144 | 3.0 | 9.0 | 0.00 | 0.00 | 0.00 | 71 | 1015.9 |
| 20260507214039 | 55 | 118 | 5.0 | 10.0 | 0.00 | 0.00 | 0.00 | 71 | 1015.8 |
| 20260507213538 | 55 | 110 | 4.0 | 10.0 | 0.00 | 0.00 | 0.00 | 71 | 1015.8 |
| 20260507213045 | 55 | 98 | 4.0 | 8.0 | 0.00 | 0.00 | 0.00 | 71 | 1015.9 |
| 20260507212539 | 55 | 139 | 4.0 | 12.0 | 0.00 | 0.00 | 0.00 | 71 | 1015.9 |
| 20260507212037 | 55 | 127 | 3.0 | 12.0 | 0.00 | 0.00 | 0.00 | 71 | 1015.9 |
| 20260507211548 | 55 | 115 | 5.0 | 14.0 | 0.00 | 0.00 | 0.00 | 70 | 1015.8 |
| 20260507211037 | 54 | 113 | 7.0 | 14.0 | 0.00 | 0.00 | 0.00 | 71 | 1015.8 |
| 20260507210537 | 55 | 69 | 3.0 | 9.0 | 0.00 | 0.00 | 0.00 | 74 | 1015.8 |
| 20260507210048 | 55 | 137 | 2.0 | 6.0 | 0.00 | 0.00 | 0.00 | 76 | 1015.8 |
| 20260507205537 | 55 | 124 | 0.0 | 3.0 | 0.00 | 0.00 | 0.00 | 77 | 1015.8 |
| 20260507205040 | 55 | 124 | 0.0 | 3.0 | 0.00 | 0.00 | 0.00 | 77 | 1015.8 |
| 20260507204555 | 55 | 148 | 1.0 | 3.0 | 0.00 | 0.00 | 0.00 | 77 | 1015.8 |
| 20260507204037 | 55 | 0 | 0.0 | 4.0 | 0.00 | 0.00 | 0.00 | 77 | 1015.8 |
| 20260507203537 | 55 | 0 | 0.0 | 6.0 | 0.00 | 0.00 | 0.00 | 77 | 1015.7 |
| 20260507203045 | 55 | 135 | 1.0 | 6.0 | 0.00 | 0.00 | 0.00 | 77 | 1015.6 |
| 20260507202538 | 55 | 180 | 1.0 | 8.0 | 0.00 | 0.00 | 0.00 | 77 | 1015.5 |
| 20260507202037 | 55 | 157 | 1.0 | 9.0 | 0.00 | 0.00 | 0.00 | 77 | 1015.6 |
| 20260507201548 | 55 | 144 | 2.0 | 9.0 | 0.00 | 0.00 | 0.00 | 76 | 1015.5 |
| 20260507201039 | 55 | 113 | 1.0 | 9.0 | 0.00 | 0.00 | 0.00 | 76 | 1015.5 |
| 20260507200542 | 55 | 101 | 2.0 | 8.0 | 0.00 | 0.00 | 0.00 | 75 | 1015.4 |
| 20260507200053 | 55 | 128 | 2.0 | 8.0 | 0.00 | 0.00 | 0.00 | 74 | 1015.4 |
| 20260507195537 | 55 | 162 | 4.0 | 8.0 | 0.00 | 0.00 | 0.00 | 74 | 1015.4 |
| 20260507195039 | 55 | 139 | 2.0 | 5.0 | 0.00 | 0.00 | 0.00 | 72 | 1015.3 |
| 20260507194553 | 55 | 0 | 0.0 | 9.0 | 0.00 | 0.00 | 0.00 | 72 | 1015.1 |
| 20260507194042 | 55 | 25 | 3.0 | 9.0 | 0.00 | 0.00 | 0.00 | 72 | 1015.1 |
| 20260507193537 | 55 | 78 | 2.0 | 10.0 | 0.00 | 0.00 | 0.00 | 73 | 1014.9 |
| 20260507193047 | 55 | 98 | 4.0 | 10.0 | 0.00 | 0.00 | 0.00 | 73 | 1014.8 |
| 20260507192536 | 55 | 94 | 4.0 | 10.0 | 0.00 | 0.00 | 0.00 | 73 | 1014.9 |
| 20260507192037 | 55 | 105 | 3.0 | 9.0 | 0.00 | 0.00 | 0.00 | 73 | 1015.0 |
| 20260507191608 | 56 | 115 | 1.0 | 9.0 | 0.00 | 0.00 | 0.00 | 73 | 1015.1 |
| 20260507191036 | 56 | 122 | 4.0 | 9.0 | 0.00 | 0.00 | 0.00 | 73 | 1015.2 |
| 20260507190538 | 56 | 89 | 3.0 | 10.0 | 0.00 | 0.00 | 0.00 | 73 | 1015.1 |
| 20260507190047 | 56 | 125 | 2.0 | 10.0 | 0.00 | 0.00 | 0.00 | 72 | 1015.1 |
| 20260507185538 | 56 | 142 | 3.0 | 7.0 | 0.00 | 0.00 | 0.00 | 71 | 1014.9 |
| 20260507185038 | 56 | 144 | 2.0 | 7.0 | 0.00 | 0.00 | 0.00 | 69 | 1015.0 |
| 20260507184557 | 56 | 150 | 1.0 | 7.0 | 0.00 | 0.00 | 0.00 | 68 | 1015.0 |
| 20260507184037 | 57 | 153 | 2.0 | 7.0 | 0.00 | 0.00 | 0.00 | 66 | 1015.1 |
| 20260507183537 | 57 | 147 | 1.0 | 7.0 | 0.00 | 0.00 | 0.00 | 65 | 1015.0 |
| 20260507183052 | 57 | 139 | 2.0 | 8.0 | 0.00 | 0.00 | 0.00 | 66 | 1015.2 |
| 20260507182538 | 57 | 174 | 3.0 | 8.0 | 0.00 | 0.00 | 0.00 | 66 | 1015.0 |
| 20260507182038 | 57 | 155 | 3.0 | 8.0 | 0.00 | 0.00 | 0.00 | 65 | 1014.9 |
| 20260507181551 | 57 | 0 | 1.0 | 8.0 | 0.00 | 0.00 | 0.00 | 66 | 1014.9 |
| 20260507181037 | 57 | 159 | 3.0 | 8.0 | 0.00 | 0.00 | 0.00 | 63 | 1014.9 |
| 20260507180537 | 57 | 155 | 1.0 | 8.0 | 0.00 | 0.00 | 0.00 | 64 | 1014.9 |
| 20260507180053 | 58 | 139 | 2.0 | 6.0 | 0.00 | 0.00 | 0.00 | 61 | 1014.9 |
| 20260507175541 | 58 | 121 | 0.0 | 6.0 | 0.00 | 0.00 | 0.00 | 63 | 1014.8 |
| 20260507175037 | 58 | 144 | 1.0 | 10.0 | 0.00 | 0.00 | 0.00 | 65 | 1014.9 |
| 20260507174547 | 58 | 148 | 1.0 | 10.0 | 0.00 | 0.00 | 0.00 | 63 | 1014.9 |
| 20260507174039 | 58 | 150 | 3.0 | 8.0 | 0.00 | 0.00 | 0.00 | 62 | 1014.8 |
| 20260507173537 | 58 | 149 | 2.0 | 8.0 | 0.00 | 0.00 | 0.00 | 64 | 1014.9 |
| 20260507173050 | 58 | 154 | 3.0 | 8.0 | 0.00 | 0.00 | 0.00 | 63 | 1014.9 |
| 20260507172537 | 58 | 137 | 2.0 | 9.0 | 0.00 | 0.00 | 0.00 | 62 | 1014.9 |
| 20260507172037 | 59 | 139 | 3.0 | 9.0 | 0.00 | 0.00 | 0.00 | 53 | 1014.9 |
| 20260507171552 | 59 | 152 | 1.0 | 9.0 | 0.00 | 0.00 | 0.00 | 54 | 1014.9 |
| 20260507171038 | 59 | 0 | 2.0 | 9.0 | 0.00 | 0.00 | 0.00 | 55 | 1014.9 |
| 20260507170538 | 59 | 136 | 2.0 | 9.0 | 0.00 | 0.00 | 0.00 | 53 | 1014.9 |
| 20260507170052 | 59 | 145 | 1.0 | 8.0 | 0.00 | 0.00 | 0.00 | 57 | 1014.9 |
| 20260507165537 | 60 | 98 | 1.0 | 8.0 | 0.00 | 0.00 | 0.00 | 62 | 1015.0 |
| 20260507165038 | 60 | 136 | 0.0 | 9.0 | 0.00 | 0.00 | 0.00 | 58 | 1015.0 |
| 20260507164604 | 60 | 0 | 2.0 | 12.0 | 0.00 | 0.00 | 0.00 | 59 | 1014.9 |
| 20260507164038 | 60 | 157 | 3.0 | 12.0 | 0.00 | 0.00 | 0.00 | 59 | 1015.0 |
| 20260507163538 | 61 | 147 | 2.0 | 9.0 | 0.00 | 0.00 | 0.00 | 58 | 1014.9 |
| 20260507163045 | 61 | 0 | 2.0 | 7.0 | 0.00 | 0.00 | 0.00 | 59 | 1014.9 |
| 20260507162536 | 61 | 171 | 3.0 | 10.0 | 0.00 | 0.00 | 0.00 | 59 | 1014.9 |
| 20260507162039 | 61 | 200 | 3.0 | 10.0 | 0.00 | 0.00 | 0.00 | 60 | 1015.0 |
| 20260507161555 | 61 | 121 | 4.0 | 9.0 | 0.00 | 0.00 | 0.00 | 60 | 1015.0 |
| 20260507161038 | 61 | 175 | 4.0 | 9.0 | 0.00 | 0.00 | 0.00 | 57 | 1015.1 |
| 20260507160535 | 60 | 146 | 3.0 | 9.0 | 0.00 | 0.00 | 0.00 | 59 | 1015.2 |
| 20260507160052 | 60 | 121 | 4.0 | 9.0 | 0.00 | 0.00 | 0.00 | 58 | 1015.2 |
| 20260507155538 | 60 | 134 | 4.0 | 9.0 | 0.00 | 0.00 | 0.00 | 60 | 1015.2 |
| 20260507155037 | 60 | 163 | 4.0 | 11.0 | 0.00 | 0.00 | 0.00 | 64 | 1015.2 |
| 20260507154549 | 60 | 138 | 5.0 | 11.0 | 0.00 | 0.00 | 0.00 | 62 | 1015.2 |
| 20260507154039 | 60 | 151 | 6.0 | 13.0 | 0.00 | 0.00 | 0.00 | 62 | 1015.3 |
| 20260507153537 | 59 | 196 | 5.0 | 13.0 | 0.00 | 0.00 | 0.00 | 65 | 1015.2 |
| 20260507153052 | 60 | 135 | 5.0 | 12.0 | 0.00 | 0.00 | 0.00 | 62 | 1015.3 |
| 20260507152537 | 60 | 144 | 5.0 | 11.0 | 0.00 | 0.00 | 0.00 | 65 | 1015.2 |
| 20260507152039 | 59 | 177 | 5.0 | 11.0 | 0.00 | 0.00 | 0.00 | 66 | 1015.3 |
| 20260507151547 | 60 | 163 | 5.0 | 12.0 | 0.00 | 0.00 | 0.00 | 68 | 1015.3 |
| 20260507151037 | 59 | 98 | 4.0 | 12.0 | 0.00 | 0.00 | 0.00 | 68 | 1015.4 |
| 20260507150537 | 60 | 128 | 6.0 | 13.0 | 0.00 | 0.00 | 0.00 | 66 | 1015.4 |
| 20260507150050 | 60 | 171 | 5.0 | 13.0 | 0.00 | 0.00 | 0.00 | 67 | 1015.3 |
| 20260507145631 | 60 | 140 | 6.0 | 14.0 | 0.00 | 0.00 | 0.00 | 68 | 1015.3 |
| 20260507145039 | 60 | 123 | 4.0 | 14.0 | 0.00 | 0.00 | 0.00 | 68 | 1015.4 |
| 20260507144543 | 60 | 132 | 5.0 | 12.0 | 0.00 | 0.00 | 0.00 | 70 | 1015.4 |
| 20260507144033 | 59 | 172 | 7.0 | 11.0 | 0.00 | 0.00 | 0.00 | 69 | 1015.5 |
| 20260507143533 | 60 | 138 | 5.0 | 10.0 | 0.00 | 0.00 | 0.00 | 67 | 1015.6 |
| 20260507143100 | 60 | 147 | 5.0 | 10.0 | 0.00 | 0.00 | 0.00 | 68 | 1015.6 |
| 20260507142536 | 60 | 168 | 4.0 | 12.0 | 0.00 | 0.00 | 0.00 | 68 | 1015.5 |
| 20260507142033 | 60 | 152 | 5.0 | 12.0 | 0.00 | 0.00 | 0.00 | 65 | 1015.6 |
| 20260507141604 | 60 | 209 | 6.0 | 12.0 | 0.00 | 0.00 | 0.00 | 68 | 1015.6 |
| 20260507141035 | 60 | 130 | 6.0 | 12.0 | 0.00 | 0.00 | 0.00 | 69 | 1015.8 |
| 20260507140537 | 60 | 140 | 5.0 | 13.0 | 0.00 | 0.00 | 0.00 | 69 | 1015.8 |
| 20260507140050 | 60 | 205 | 6.0 | 16.0 | 0.00 | 0.00 | 0.00 | 69 | 1015.7 |
| 20260507135533 | 60 | 140 | 6.0 | 16.0 | 0.00 | 0.00 | 0.00 | 68 | 1015.7 |
| 20260507135034 | 60 | 142 | 6.0 | 14.0 | 0.00 | 0.00 | 0.00 | 65 | 1015.8 |
| 20260507134546 | 60 | 157 | 6.0 | 14.0 | 0.00 | 0.00 | 0.00 | 65 | 1015.8 |
| 20260507134034 | 60 | 136 | 6.0 | 15.0 | 0.00 | 0.00 | 0.00 | 65 | 1015.8 |
| 20260507133534 | 60 | 175 | 6.0 | 15.0 | 0.00 | 0.00 | 0.00 | 63 | 1015.7 |
| 20260507133046 | 61 | 126 | 5.0 | 14.0 | 0.00 | 0.00 | 0.00 | 60 | 1015.7 |
| 20260507132533 | 61 | 128 | 6.0 | 13.0 | 0.00 | 0.00 | 0.00 | 58 | 1015.7 |
| 20260507132032 | 61 | 145 | 5.0 | 13.0 | 0.00 | 0.00 | 0.00 | 62 | 1015.7 |
| 20260507131554 | 60 | 157 | 4.0 | 12.0 | 0.00 | 0.00 | 0.00 | 61 | 1015.6 |
| 20260507131038 | 60 | 101 | 7.0 | 15.0 | 0.00 | 0.00 | 0.00 | 61 | 1015.7 |
| 20260507130536 | 60 | 135 | 5.0 | 15.0 | 0.00 | 0.00 | 0.00 | 60 | 1015.8 |
| 20260507130046 | 60 | 146 | 5.0 | 13.0 | 0.00 | 0.00 | 0.00 | 61 | 1015.8 |
| 20260507125533 | 60 | 133 | 6.0 | 13.0 | 0.00 | 0.00 | 0.00 | 62 | 1015.8 |
| 20260507125038 | 60 | 176 | 6.0 | 13.0 | 0.00 | 0.00 | 0.00 | 60 | 1015.8 |
| 20260507124543 | 60 | 158 | 6.0 | 13.0 | 0.00 | 0.00 | 0.00 | 62 | 1015.8 |
| 20260507124035 | 60 | 115 | 5.0 | 13.0 | 0.00 | 0.00 | 0.00 | 61 | 1015.8 |
| 20260507123534 | 60 | 146 | 7.0 | 13.0 | 0.00 | 0.00 | 0.00 | 62 | 1015.7 |
| 20260507123103 | 61 | 230 | 6.0 | 13.0 | 0.00 | 0.00 | 0.00 | 59 | 1015.9 |
| 20260507122535 | 61 | 168 | 4.0 | 16.0 | 0.00 | 0.00 | 0.00 | 59 | 1015.9 |
| 20260507122033 | 61 | 146 | 7.0 | 16.0 | 0.00 | 0.00 | 0.00 | 59 | 1016.0 |
| 20260507121546 | 62 | 130 | 6.0 | 14.0 | 0.00 | 0.00 | 0.00 | 59 | 1015.9 |
| 20260507121033 | 61 | 169 | 4.0 | 14.0 | 0.00 | 0.00 | 0.00 | 57 | 1016.0 |
| 20260507120532 | 61 | 145 | 6.0 | 14.0 | 0.00 | 0.00 | 0.00 | 59 | 1016.0 |
| 20260507120047 | 62 | 148 | 5.0 | 13.0 | 0.00 | 0.00 | 0.00 | 59 | 1016.1 |
| 20260507115535 | 62 | 167 | 4.0 | 13.0 | 0.00 | 0.00 | 0.00 | 59 | 1016.0 |
| 20260507115037 | 61 | 172 | 5.0 | 14.0 | 0.00 | 0.00 | 0.00 | 62 | 1016.1 |
| 20260507114553 | 61 | 154 | 6.0 | 14.0 | 0.00 | 0.00 | 0.00 | 60 | 1016.1 |
| 20260507114037 | 61 | 161 | 5.0 | 11.0 | 0.00 | 0.00 | 0.00 | 61 | 1016.1 |
| 20260507113537 | 61 | 205 | 6.0 | 12.0 | 0.00 | 0.00 | 0.00 | 61 | 1016.1 |
| 20260507113046 | 61 | 159 | 4.0 | 13.0 | 0.00 | 0.00 | 0.00 | 62 | 1016.0 |
| 20260507112537 | 61 | 112 | 5.0 | 13.0 | 0.00 | 0.00 | 0.00 | 62 | 1016.1 |
| 20260507112037 | 61 | 130 | 6.0 | 13.0 | 0.00 | 0.00 | 0.00 | 64 | 1016.1 |
| 20260507111545 | 61 | 189 | 6.0 | 11.0 | 0.00 | 0.00 | 0.00 | 61 | 1016.1 |
| 20260507111038 | 61 | 163 | 3.0 | 10.0 | 0.00 | 0.00 | 0.00 | 64 | 1016.1 |
| 20260507110537 | 60 | 190 | 5.0 | 13.0 | 0.00 | 0.00 | 0.00 | 66 | 1016.1 |
| 20260507110050 | 60 | 91 | 5.0 | 14.0 | 0.00 | 0.00 | 0.00 | 66 | 1016.1 |
| 20260507105534 | 60 | 149 | 6.0 | 14.0 | 0.00 | 0.00 | 0.00 | 66 | 1016.2 |
| 20260507105035 | 60 | 132 | 6.0 | 13.0 | 0.00 | 0.00 | 0.00 | 65 | 1016.2 |
| 20260507104549 | 60 | 160 | 4.0 | 12.0 | 0.00 | 0.00 | 0.00 | 66 | 1016.3 |
| 20260507104037 | 59 | 144 | 5.0 | 15.0 | 0.00 | 0.00 | 0.00 | 67 | 1016.2 |
| 20260507103534 | 59 | 107 | 6.0 | 15.0 | 0.00 | 0.00 | 0.00 | 68 | 1016.2 |
| 20260507103048 | 59 | 148 | 6.0 | 13.0 | 0.00 | 0.00 | 0.00 | 67 | 1016.2 |
| 20260507102538 | 59 | 126 | 4.0 | 11.0 | 0.00 | 0.00 | 0.00 | 66 | 1016.1 |
| 20260507102035 | 60 | 166 | 5.0 | 11.0 | 0.00 | 0.00 | 0.00 | 66 | 1016.1 |
| 20260507101546 | 59 | 120 | 5.0 | 13.0 | 0.00 | 0.00 | 0.00 | 65 | 1016.1 |
| 20260507101034 | 59 | 207 | 6.0 | 13.0 | 0.00 | 0.00 | 0.00 | 66 | 1016.2 |
| 20260507100537 | 59 | 170 | 4.0 | 12.0 | 0.00 | 0.00 | 0.00 | 66 | 1016.2 |
| 20260507100052 | 60 | 123 | 6.0 | 12.0 | 0.00 | 0.00 | 0.00 | 64 | 1016.2 |
| 20260507095537 | 60 | 192 | 5.0 | 13.0 | 0.00 | 0.00 | 0.00 | 65 | 1016.3 |
| 20260507095041 | 60 | 192 | 5.0 | 13.0 | 0.00 | 0.00 | 0.00 | 64 | 1016.2 |
| 20260507094549 | 60 | 173 | 4.0 | 10.0 | 0.00 | 0.00 | 0.00 | 64 | 1016.2 |
| 20260507094037 | 59 | 153 | 3.0 | 9.0 | 0.00 | 0.00 | 0.00 | 65 | 1016.1 |
| 20260507093537 | 59 | 210 | 4.0 | 10.0 | 0.00 | 0.00 | 0.00 | 65 | 1016.1 |